Wind_Speed
5 4 5 5 6 7 5 4 4 3 3 3 2 2 2 1 1 1 1 2 2 2 2 2 2 2 0 2 4 6 8 6 2 1 5 7 9 11 12 14 14 13 12 11 10 9 5 2 4 3 1 2 5 6 5 9 10 5 2 2 3 3 3 2 1 2 1 2 3 9 6 4 4 4 10 7 7 11 8 6 4 4 5 4 6 6 14 28
7 6 6 6 7 6 4 4 4 4 4 3 3 2 1 1 1 1 1 1 1 1 1 1 1 1 0 2 4 7 8 3 1 2 6 10 12 14 15 15 15 14 14 13 10 9 5 1 1 1 5 6 6 6 5 8 10 6 2 2 4 4 2 2 2 4 3 2 4 6 2 3 6 8 12 5 6 11 7 4 4 4 5 7 7 9 18 29
7 7 7 6 7 6 6 5 5 5 5 5 4 4 4 4 3 3 2 2 1 1 1 1 1 0 1 2 5 7 5 1 2 4 9 13 15 16 17 16 15 14 13 12 10 8 6 4 2 0 5 7 7 8 6 6 7 7 4 2 4 4 3 4 4 3 3 4 3 3 3 5 6 8 10 6 7 8 5 7 7 8 10 11 10 12 21 30
7 7 6 6 6 7 7 7 6 6 5 5 4 4 4 3 3 3 2 2 1 1 1 1 1 1 2 3 5 6 4 1 2 6 11 14 16 16 16 15 13 13 11 9 8 6 4 4 3 2 4 6 8 8 7 7 6 6 6 4 4 4 3 3 4 4 3 5 1 6 5 5 5 7 7 6 7 4 7 11 11 12 15 15 14 15 23 30
7 6 6 6 6 6 7 6 6 5 5 4 3 3 3 3 3 2 2 2 2 2 1 1 1 1 1 2 5 6 3 1 2 7 11 13 15 14 13 12 10 9 7 6 5 2 1 1 2 3 4 5 6 5 6 12 11 4 4 5 2 2 2 2 4 5 5 4 2 5 4 3 5 5 4 4 4 5 8 11 12 14 15 15 15 17 24 29
7 6 6 5 5 5 5 5 4 4 4 3 3 3 4 4 4 3 3 3 3 3 2 1 1 1 2 3 4 5 2 0 3 8 11 12 12 12 11 9 7 5 4 3 3 3 4 4 3 4 3 4 5 5 7 13 14 6 1 6 7 4 3 2 4 5 6 4 3 2 2 2 3 2 3 5 6 6 9 10 10 12 13 14 13 17 25 29
6 5 5 4 4 4 4 3 3 3 3 3 3 4 4 4 4 4 3 3 3 3 1 1 1 1 2 3 3 3 3 1 5 10 10 10 11 11 10 8 5 2 3 4 4 4 5 5 5 7 4 3 5 6 8 8 10 7 0 3 6 6 6 4 4 5 5 4 3 2 0 0 1 2 2 7 10 8 9 10 10 12 13 12 12 17 24 28
4 4 3 3 3 2 2 2 2 3 3 3 4 4 4 4 4 4 3 2 1 1 0 1 2 2 3 4 2 2 2 5 10 11 9 9 9 9 8 7 5 3 6 7 6 5 4 5 6 5 3 3 4 3 6 6 2 3 1 2 5 6 5 4 4 5 4 3 2 2 2 2 3 3 4 9 12 11 11 12 12 13 13 13 13 16 22 27
2 2 1 1 1 1 2 2 2 3 3 4 4 5 5 4 4 3 2 2 1 1 3 4 6 6 5 2 2 1 3 10 12 9 9 8 8 8 7 7 5 3 6 6 4 4 4 5 7 6 4 5 7 6 6 6 3 2 3 3 5 5 3 3 2 3 2 2 2 2 3 4 5 4 6 12 13 13 12 12 14 15 14 14 14 15 20 25
1 0 0 0 1 1 1 1 2 3 3 4 4 5 5 4 4 3 3 4 4 5 7 9 9 8 6 4 2 1 6 10 9 8 8 7 7 8 8 8 6 3 6 5 4 5 4 4 6 6 5 5 7 6 5 3 1 3 6 5 6 5 2 2 1 1 1 2 3 2 4 6 5 2 4 10 12 13 12 13 16 17 17 17 16 17 19 23
0 1 1 2 1 1 0 1 2 3 3 4 4 4 4 4 4 4 5 6 6 8 10 10 9 9 6 6 6 4 8 10 8 8 7 6 6 7 9 8 7 5 5 5 6 6 4 2 5 5 3 5 6 4 5 4 1 3 5 3 2 3 2 2 3 0 1 1 3 3 5 7 1 3 8 11 12 13 13 13 16 17 19 19 18 19 20 23
1 1 2 2 2 2 1 1 1 2 3 4 4 4 4 4 4 5 6 7 9 11 12 10 8 7 4 6 10 9 10 10 10 9 7 7 6 6 9 9 9 8 6 6 7 7 4 2 3 4 3 3 3 2 3 2 0 1 2 1 2 2 1 3 2 1 1 1 4 5 5 6 2 7 11 10 12 13 12 14 16 16 18 19 20 21 22 24
0 1 1 2 2 2 1 0 1 2 3 4 4 4 5 5 7 8 8 9 10 11 10 7 5 4 2 4 9 11 11 12 11 10 7 6 6 5 6 8 9 9 8 8 9 7 5 4 4 5 4 2 0 0 1 2 1 1 1 1 2 5 4 5 1 1 1 1 3 5 4 6 5 10 11 9 12 13 13 15 17 17 18 20 21 23 23 25
2 2 2 2 2 2 1 1 2 2 3 3 3 5 6 7 10 11 12 11 10 8 5 4 4 3 3 4 7 11 12 12 11 9 6 5 5 5 5 7 6 7 8 8 8 7 4 4 5 4 3 4 1 0 2 2 1 0 2 1 0 1 4 5 3 2 1 2 0 4 2 7 7 10 11 13 13 14 16 18 18 19 20 21 23 24 24 25
3 3 3 3 2 2 1 1 2 2 2 3 4 6 8 10 11 11 11 9 7 6 4 4 3 3 3 4 5 9 12 11 11 11 9 6 5 5 5 5 4 5 7 7 8 6 4 4 4 2 3 6 4 2 3 4 2 2 1 3 3 0 4 6 5 3 2 3 2 3 2 7 7 9 13 15 14 16 19 20 21 21 22 23 24 25 25 23
4 3 3 2 1 1 0 1 2 1 2 4 6 8 9 10 9 8 7 5 5 4 3 4 1 2 2 3 4 8 12 11 13 14 12 9 5 4 5 4 4 5 6 6 7 7 5 4 3 6 9 7 4 2 3 4 4 3 2 2 4 2 2 5 4 3 2 2 2 2 3 6 6 7 12 16 17 19 21 22 24 24 24 25 26 26 25 24
4 3 3 1 1 1 1 1 1 1 3 6 7 8 9 9 7 6 6 6 6 4 5 3 1 0 1 3 5 9 11 11 13 14 14 11 4 3 5 4 4 4 5 5 6 7 4 2 0 5 9 7 3 3 4 4 4 4 3 1 3 2 2 4 4 5 5 2 3 3 5 9 10 9 13 18 20 22 23 24 25 26 26 26 27 27 26 26
4 3 3 2 2 1 1 2 2 3 6 7 9 9 8 7 5 4 3 4 4 3 4 3 1 2 1 5 7 9 8 8 13 16 14 9 4 4 5 5 5 6 7 4 3 4 3 2 3 3 6 6 4 5 3 2 2 2 3 2 4 4 2 4 4 3 5 3 4 5 7 12 13 11 15 20 22 24 26 27 26 26 27 27 28 28 28 28
4 3 3 3 3 3 3 3 4 6 8 10 10 9 7 6 5 5 4 3 4 4 2 5 5 2 2 5 8 8 4 4 10 15 13 6 5 4 4 4 5 7 9 3 3 4 3 4 6 4 4 4 4 4 4 4 3 4 4 2 4 5 4 5 5 2 2 4 6 6 7 11 14 12 13 18 21 26 28 27 25 24 25 27 28 29 29 29
4 4 3 4 3 4 4 5 5 7 10 11 10 8 7 6 4 6 9 10 13 10 5 7 9 3 2 5 8 8 3 1 7 14 12 6 4 3 5 5 2 5 6 1 2 5 6 5 4 2 2 2 3 1 2 2 2 3 3 3 4 4 5 5 4 4 2 3 6 6 7 13 16 14 14 18 18 22 25 23 23 25 25 27 29 30 31 31
5 5 4 4 4 3 4 6 6 8 11 11 8 6 3 5 2 4 9 13 13 11 8 7 8 7 4 5 8 9 5 2 5 12 10 6 5 3 6 7 1 4 6 2 1 3 7 5 1 2 4 2 4 5 2 3 3 3 2 4 5 3 6 6 4 4 1 3 6 5 9 15 16 14 15 15 11 16 23 23 23 27 27 28 29 30 31 31
6 5 4 4 3 3 3 5 7 10 12 9 5 4 5 3 4 6 7 9 8 8 8 6 7 9 8 5 5 8 10 8 7 13 12 7 5 4 7 9 5 3 6 5 3 4 6 2 3 3 2 2 4 4 2 3 3 3 2 2 4 3 4 6 4 3 2 2 6 6 7 14 18 15 14 13 12 18 27 29 29 29 28 29 30 31 31 30
7 6 5 4 2 1 2 5 8 11 10 6 1 5 5 4 8 7 6 7 5 6 5 4 8 12 11 7 3 5 11 10 8 15 17 10 8 9 8 7 5 3 5 5 4 4 2 3 5 3 2 4 4 3 6 5 3 2 2 1 4 3 2 4 5 7 6 4 7 7 7 11 15 12 11 11 14 19 24 27 30 30 28 29 29 30 30 31
7 7 6 4 2 0 1 4 8 10 9 7 4 2 4 4 7 6 5 5 3 2 2 3 7 10 12 10 6 4 8 9 9 14 17 13 8 6 5 5 5 5 4 4 7 6 2 5 3 2 3 2 2 5 6 5 4 3 2 2 3 3 1 4 6 8 8 5 4 5 6 7 8 7 7 7 6 12 16 18 24 27 28 28 27 28 29 30
8 7 6 4 2 1 2 4 5 7 8 8 6 3 1 3 7 4 2 3 1 1 2 2 4 7 10 10 8 3 2 6 11 13 14 13 9 4 3 4 4 3 3 4 7 5 1 5 1 3 4 3 2 3 2 3 4 5 3 4 4 3 3 5 6 7 6 5 2 3 5 6 6 6 8 7 4 7 7 10 18 24 26 26 27 28 29 29
8 7 6 4 2 0 2 3 3 5 6 7 7 5 3 6 6 0 2 3 2 3 1 2 3 6 8 11 10 2 1 4 10 12 11 11 10 5 3 4 4 1 0 3 4 2 1 2 1 2 2 4 3 2 2 4 4 4 4 4 4 2 3 5 5 4 2 4 5 2 1 5 7 8 9 8 7 8 6 6 13 19 22 24 28 30 29 30
8 7 6 4 2 1 3 3 3 5 4 4 6 6 6 7 3 3 2 3 3 2 1 3 2 5 7 10 12 2 1 6 7 9 11 10 9 7 3 3 3 1 0 3 2 1 1 1 2 2 2 3 2 2 3 5 5 4 5 4 2 2 4 4 2 1 2 5 6 1 3 3 6 8 8 6 7 8 7 8 11 16 22 25 29 31 31 31
8 7 5 3 1 1 3 2 2 4 3 2 5 8 8 7 2 3 4 3 2 0 2 2 0 5 5 6 11 7 2 6 4 6 11 10 8 7 4 1 2 2 1 4 2 3 1 1 2 1 3 1 2 4 4 6 3 6 5 3 3 5 6 3 1 3 2 3 6 4 2 1 5 8 6 4 5 8 9 9 10 15 24 28 30 31 29 29
8 8 5 3 1 2 3 2 2 5 4 3 5 10 9 5 1 2 4 2 1 0 1 2 1 5 6 3 8 9 6 6 3 4 8 8 8 7 3 2 3 2 1 4 4 4 1 1 3 5 3 3 4 5 4 6 2 6 3 3 5 4 4 3 2 2 2 2 5 5 2 0 5 7 5 3 3 7 8 8 8 15 23 26 27 26 25 25
9 9 6 3 1 1 2 2 3 5 5 5 8 11 8 3 1 4 3 1 0 0 1 2 1 5 8 3 4 7 5 5 6 6 6 5 6 6 3 1 2 3 1 3 2 3 2 0 1 2 3 4 3 4 4 6 5 5 6 5 5 3 2 2 2 2 3 2 6 5 2 3 3 6 5 3 4 6 5 7 7 11 18 20 21 21 21 22
8 9 6 3 1 1 2 2 4 6 6 8 11 11 6 1 3 5 1 1 0 1 2 2 2 3 6 3 2 6 5 5 8 7 5 4 4 7 5 2 3 4 3 5 3 4 3 2 2 2 2 1 2 3 4 2 0 4 5 3 4 4 3 4 4 4 3 3 6 4 1 3 2 7 6 5 6 5 5 7 8 10 14 13 12 14 16 18
7 8 6 3 1 2 2 2 5 7 9 12 12 8 4 3 3 1 1 2 1 1 0 1 2 2 4 3 1 4 3 3 5 4 2 2 3 4 3 1 0 4 4 4 4 5 3 3 3 0 1 2 3 3 5 4 5 4 3 4 4 4 4 4 3 2 1 4 4 2 2 0 5 9 11 11 12 11 10 12 13 14 12 8 5 8 11 14
7 7 5 3 2 2 3 3 5 9 12 14 11 4 4 4 1 2 1 2 0 1 1 1 2 1 2 4 2 3 2 1 3 3 0 1 3 2 3 0 2 2 1 2 3 5 4 4 2 1 2 3 5 2 2 2 3 2 1 3 3 2 3 3 4 3 2 4 4 2 3 3 6 8 10 12 12 14 14 13 12 11 9 6 6 8 10 11
6 6 5 4 3 3 3 4 7 12 15 13 8 3 5 3 2 1 1 2 1 1 1 1 2 3 3 2 1 2 2 1 2 2 1 2 3 1 3 4 2 3 1 1 2 1 1 4 3 2 1 3 4 3 4 3 0 2 2 4 4 3 2 3 3 3 4 4 4 3 1 3 4 5 7 9 11 14 14 12 9 8 7 7 7 8 8 9
5 6 6 4 4 3 3 6 9 14 16 10 4 5 4 2 3 1 2 3 1 1 1 0 2 4 3 2 1 1 2 1 2 3 2 1 1 2 1 2 2 2 3 2 2 1 2 5 5 1 2 5 3 2 4 4 1 3 1 4 1 3 4 2 4 5 3 3 3 3 3 5 5 7 10 9 10 13 14 12 10 8 6 5 7 9 8 8
4 5 6 5 4 3 4 7 12 17 14 6 5 3 2 3 2 2 2 1 2 2 0 2 3 3 3 3 2 3 2 1 2 3 2 1 2 2 2 2 1 2 4 3 1 0 0 5 4 1 1 2 3 1 2 2 1 1 2 1 4 4 4 1 4 3 2 2 4 3 3 5 5 8 9 7 7 9 10 8 8 7 5 5 10 12 10 11
3 5 7 7 3 3 5 9 15 17 9 4 5 1 3 1 2 3 1 0 2 2 3 1 1 1 1 2 2 3 1 1 2 1 1 1 1 2 3 1 0 1 3 3 1 1 1 5 5 1 2 3 1 0 2 1 2 2 1 4 3 1 3 2 2 4 4 3 5 3 5 4 3 5 6 7 8 10 9 7 7 7 6 9 13 12 12 15
3 4 6 7 4 4 7 11 17 14 4 5 3 2 1 1 2 2 1 1 1 2 4 2 1 1 1 1 2 3 1 1 2 1 1 1 1 3 5 2 1 1 2 2 1 1 2 2 6 0 1 3 1 2 3 3 1 3 3 2 1 1 1 1 1 2 2 4 5 5 7 5 4 5 6 7 7 8 9 8 7 7 8 10 10 11 16 20
3 2 5 7 4 4 8 14 16 8 3 4 1 2 1 1 1 2 1 0 1 2 2 2 1 0 1 2 2 2 1 1 1 1 0 1 1 2 5 3 1 2 2 2 1 1 2 1 5 3 0 1 2 1 2 2 1 2 2 3 1 3 3 2 2 2 2 3 5 5 5 4 5 6 5 7 7 6 8 7 5 8 10 10 10 15 22 24
2 2 4 6 3 6 10 14 12 4 3 2 2 2 1 1 2 2 2 1 1 2 1 2 1 1 2 2 1 1 0 2 2 0 1 1 1 1 3 3 3 3 1 1 1 0 1 2 4 5 3 1 1 3 6 5 3 2 0 1 1 1 1 1 2 2 4 2 3 5 6 5 5 3 3 7 8 7 7 6 6 10 13 15 17 20 23 24
2 2 3 4 5 10 12 10 5 3 3 1 1 0 0 2 3 3 3 2 1 2 1 2 3 2 2 1 1 1 1 1 3 2 2 2 1 2 1 4 6 6 3 2 1 1 0 2 3 4 3 3 5 5 5 7 6 5 4 5 4 3 3 1 4 3 2 3 4 3 9 9 4 3 5 7 8 7 6 6 8 13 18 20 22 23 23 24
2 2 2 2 9 13 11 5 2 3 4 2 1 1 1 3 3 2 3 2 1 1 1 1 2 2 1 1 2 2 1 1 3 3 3 3 3 2 2 5 9 8 5 1 2 2 2 2 2 5 6 7 6 2 1 3 4 5 4 4 4 4 5 4 4 4 1 3 3 1 6 9 4 3 4 3 3 5 9 12 13 18 22 23 25 27 27 26
2 2 1 4 11 12 6 2 3 3 2 1 2 2 2 3 2 2 3 1 1 1 1 0 2 1 1 2 1 2 1 2 4 4 3 3 2 2 3 5 8 7 4 1 2 1 2 1 1 5 6 5 3 3 2 2 3 1 3 3 4 3 4 5 5 3 1 5 3 1 4 8 5 0 2 5 8 11 15 18 18 20 24 26 28 29 29 29
2 2 2 6 13 9 3 2 1 0 0 1 1 1 1 1 2 3 3 3 3 2 1 1 2 1 1 1 2 2 2 1 2 3 2 2 2 2 4 6 8 6 2 2 2 2 2 1 0 3 7 7 5 5 5 4 1 2 4 2 5 4 2 1 1 2 1 6 5 3 6 9 4 2 6 10 12 13 18 25 25 24 26 28 28 29 30 31
2 2 2 6 11 7 2 2 4 3 3 2 0 1 1 0 2 4 3 3 4 3 2 1 1 1 1 1 1 2 2 2 3 2 1 1 2 2 4 5 6 5 3 3 4 3 2 2 2 1 4 5 6 6 3 2 2 2 2 3 4 6 5 2 1 2 4 5 3 5 8 12 9 7 10 10 10 14 21 27 29 27 27 28 29 31 33 33
2 0 0 2 6 6 2 1 4 4 4 4 1 1 3 1 2 4 3 2 4 4 2 1 2 2 0 1 0 3 3 3 3 2 1 3 3 1 4 5 5 4 3 3 3 2 1 2 3 6 7 7 9 9 2 3 4 6 7 9 8 6 7 4 1 4 6 3 4 10 11 12 15 13 12 12 13 14 16 20 24 25 26 28 30 32 34 36
0 1 1 1 2 2 1 1 4 4 4 5 3 2 4 2 1 2 3 3 4 5 3 2 3 3 2 3 2 3 3 2 2 2 3 5 3 1 2 4 4 4 4 3 3 2 1 3 5 8 11 11 13 13 6 5 8 10 11 15 14 7 6 7 8 9 4 2 9 16 12 11 13 11 13 16 15 13 13 16 19 22 25 29 33 36 37 36
0 2 2 2 2 1 1 2 4 4 4 4 2 2 4 3 1 3 4 2 2 4 3 2 4 6 6 6 3 2 2 1 2 4 3 3 2 1 1 1 2 3 4 3 2 4 3 4 5 6 9 11 12 14 10 7 10 10 11 16 16 11 8 10 14 15 7 6 14 17 16 17 16 12 13 14 12 12 14 18 22 24 27 31 36 37 34 31
0 1 2 3 2 2 3 3 4 5 4 3 2 2 5 5 5 4 3 3 1 5 6 3 6 9 8 6 4 3 4 3 3 5 3 2 2 1 1 1 1 2 3 3 1 3 4 3 4 3 7 9 9 13 13 10 9 9 11 14 14 14 12 11 14 15 11 13 17 17 19 20 15 10 9 11 15 17 18 23 26 26 28 33 34 30 27 28
2 1 2 3 1 2 3 3 4 4 2 1 1 3 5 6 6 4 4 6 2 2 6 6 8 8 8 7 6 6 8 7 4 5 5 3 2 2 3 3 3 2 1 3 1 2 3 2 2 1 5 8 7 9 9 6 6 9 13 14 12 12 10 7 9 9 8 10 13 13 15 14 9 8 9 14 20 20 20 24 24 25 29 31 26 24 26 30
6 4 2 2 1 2 3 3 4 4 1 1 3 4 4 6 8 6 4 9 10 6 8 10 8 4 5 7 9 12 14 10 6 7 6 5 5 5 4 3 6 5 2 3 2 2 3 3 3 5 5 7 3 3 7 7 8 11 13 13 9 5 4 3 4 5 5 6 8 9 7 6 5 9 12 16 19 19 19 20 23 27 29 25 21 24 28 31
8 6 5 3 1 2 4 2 2 2 2 4 5 5 4 5 8 8 2 7 12 10 9 12 9 4 3 7 11 15 16 12 11 11 9 9 10 9 7 5 8 8 5 4 2 2 4 2 2 3 3 7 3 5 9 8 8 8 7 6 4 2 0 4 4 5 6 5 4 6 5 4 7 9 11 13 15 16 17 20 24 26 23 21 24 28 31 33
Wind_Direction
135 122 106 91 88 94 106 112 122 141 148 159 166 174 197 209 220 228 230 229 218 222 222 223 222 219 230 78 98 123 117 99 99 27 334 328 339 336 330 326 322 321 321 320 312 301 299 349 345 350 54 269 254 256 222 218 216 203 146 155 258 242 236 282 297 320 147 202 205 190 187 141 153 136 137 119 111 129 134 160 153 179 195 199 187 170 182 182
139 117 100 86 82 89 94 93 106 110 110 110 101 99 76 44 11 356 351 337 339 332 327 280 262 242 211 111 120 133 129 96 359 307 322 324 329 330 328 323 317 314 316 318 307 296 290 221 342 267 226 239 247 247 219 204 196 187 140 162 242 214 187 20 11 341 19 309 235 183 181 149 163 160 158 150 128 136 128 143 166 181 175 175 169 162 178 181
118 107 103 95 88 83 79 80 88 87 82 78 67 59 45 35 26 15 7 353 344 342 355 340 315 192 153 143 134 143 149 68 332 306 328 332 328 325 323 319 314 312 313 315 308 293 281 245 217 297 248 245 241 231 209 183 187 200 179 181 249 195 144 42 34 359 6 337 309 149 130 135 154 168 169 169 160 161 172 177 183 194 190 180 169 168 179 182
104 104 99 90 80 70 69 70 73 72 68 65 55 47 38 32 27 10 354 342 324 319 330 344 18 89 135 148 143 159 194 343 358 327 337 334 328 324 320 318 314 313 315 319 313 293 283 259 235 292 285 259 251 241 211 186 193 200 177 187 239 181 141 28 24 359 354 0 19 159 141 130 157 178 180 155 153 208 219 200 208 213 207 194 179 174 180 184
108 106 100 91 80 72 70 69 67 64 59 53 41 28 16 12 10 356 339 325 317 310 311 339 21 49 113 146 158 173 211 325 324 325 334 331 327 325 321 321 319 322 330 341 344 336 353 338 251 279 282 266 271 268 221 201 199 195 155 136 80 123 133 357 360 356 351 11 97 144 129 155 174 177 197 168 166 222 207 202 219 223 218 205 193 180 180 186
115 111 109 104 91 82 73 66 57 51 45 31 18 2 353 347 343 342 329 314 308 303 303 335 10 37 97 142 171 176 148 130 298 324 333 333 332 330 326 325 331 342 359 13 24 36 5 339 280 267 257 255 263 248 251 226 203 202 143 96 63 63 111 31 4 7 353 15 56 79 98 170 174 191 250 237 236 224 193 198 212 211 212 209 203 187 184 189
116 113 110 101 84 74 61 51 38 29 19 10 5 353 347 333 328 332 324 310 298 292 294 337 26 66 120 145 160 160 122 105 318 331 341 343 338 335 331 332 344 1 33 36 24 13 341 322 283 268 250 256 269 248 283 271 192 175 331 85 69 65 84 54 24 24 10 25 36 11 353 111 188 211 267 252 244 230 201 198 198 197 203 208 206 191 188 193
106 103 94 84 68 54 37 19 10 5 1 1 356 347 343 335 332 332 333 325 297 278 196 108 119 107 117 125 105 116 95 344 332 337 348 349 341 343 343 349 10 47 47 39 12 351 324 341 343 314 282 285 330 338 345 358 102 107 66 122 87 75 72 60 36 26 20 27 20 343 277 249 257 248 269 257 239 225 211 201 199 200 203 209 209 195 191 195
107 98 75 76 36 10 359 355 9 7 5 1 350 347 346 348 348 347 10 51 81 110 120 106 105 95 89 76 1 42 350 330 332 342 350 349 347 356 359 0 11 48 54 42 355 334 315 350 10 6 340 316 352 9 20 28 14 52 107 123 102 110 98 83 47 32 23 3 16 348 302 261 261 273 275 258 236 221 215 208 206 206 208 210 209 202 197 199
144 140 322 324 324 347 2 18 28 12 7 358 350 352 354 1 3 17 62 82 92 105 112 105 98 86 68 27 11 25 338 333 336 347 351 350 355 11 14 8 11 47 60 37 343 328 326 335 341 344 324 326 2 12 29 58 125 86 103 109 117 142 129 130 150 40 356 343 18 1 310 281 251 237 265 246 222 215 218 217 213 210 212 211 209 206 203 204
273 309 290 280 271 252 36 70 37 12 2 357 1 6 10 19 26 54 82 92 102 113 117 112 95 79 59 36 60 56 355 354 355 353 357 354 359 24 27 21 28 50 56 28 355 343 342 324 330 342 335 347 1 12 47 70 137 108 105 96 125 141 120 169 170 238 301 341 5 358 302 295 216 188 254 241 220 220 222 221 217 214 215 213 213 209 207 209
294 294 275 256 239 220 191 131 41 21 5 6 13 20 30 41 57 75 87 96 109 120 119 113 95 75 54 38 49 38 8 6 4 358 357 355 3 31 35 32 38 42 35 23 15 11 18 14 9 14 2 359 354 17 42 42 35 158 133 47 311 47 43 246 194 213 275 328 340 358 315 297 204 226 255 238 218 218 219 220 218 217 218 217 217 215 213 213
243 220 212 212 201 189 181 130 65 36 15 20 29 46 56 66 82 89 92 98 108 119 116 104 91 62 41 53 41 23 8 7 6 359 352 353 360 19 39 39 41 41 32 31 30 28 40 55 48 24 8 30 87 20 316 279 69 266 212 149 322 7 327 269 250 278 299 305 342 16 312 282 260 249 243 220 213 209 209 216 218 219 220 220 222 225 225 220
127 141 145 142 138 141 158 118 83 44 29 45 56 71 80 88 98 100 99 100 105 112 109 105 97 45 35 71 36 10 4 3 1 1 359 356 351 359 24 26 34 44 32 29 30 30 51 54 27 6 23 51 41 298 329 319 82 314 310 354 30 357 295 298 351 35 23 286 332 72 269 265 281 265 229 214 216 211 212 216 221 223 220 223 227 231 235 230
114 116 106 104 111 114 133 100 67 43 51 75 84 92 99 106 108 105 101 98 103 107 117 136 105 16 41 64 25 360 357 358 4 8 6 357 347 350 5 360 12 42 29 25 27 26 45 37 11 4 31 31 20 15 3 347 356 41 17 316 329 167 272 309 351 52 60 285 231 112 263 266 274 261 226 216 217 214 219 222 222 224 222 224 229 233 239 239
81 78 80 86 92 101 87 39 51 49 79 95 97 97 104 116 119 112 107 93 98 105 120 140 26 353 64 32 350 347 356 3 10 9 3 0 352 341 348 341 357 17 5 3 7 7 18 15 26 59 49 29 14 24 31 14 347 10 83 275 310 5 310 313 330 351 13 317 270 196 258 274 270 255 228 217 219 218 221 225 223 225 227 225 230 234 237 240
63 63 69 65 62 64 357 47 103 107 107 106 103 102 103 111 118 121 118 104 103 88 80 99 303 221 84 7 335 338 358 12 9 4 360 360 359 352 353 345 7 10 333 323 320 325 337 326 81 66 49 31 4 44 42 7 328 334 19 342 291 310 332 308 297 325 350 336 268 242 254 265 266 266 245 228 224 221 220 227 227 225 228 229 230 233 236 238
56 57 67 79 81 80 110 134 146 135 117 110 108 108 103 101 110 109 107 129 134 94 66 41 342 164 48 12 352 333 348 15 7 2 358 4 31 18 3 12 29 2 337 333 305 310 324 355 88 71 32 24 18 56 77 260 244 282 318 335 301 302 316 294 273 313 356 334 275 275 272 270 274 271 260 246 230 222 225 230 232 229 229 230 230 232 237 239
47 44 56 82 87 90 117 134 142 137 127 122 119 110 94 87 89 69 57 98 93 74 64 24 30 142 260 344 356 342 342 20 5 358 354 14 39 5 357 23 32 356 345 9 13 6 24 29 58 55 357 1 13 72 130 220 227 248 263 253 277 291 293 281 263 246 342 314 275 265 267 276 285 280 269 262 236 223 231 235 234 233 231 231 231 233 237 241
31 27 33 54 71 82 107 124 136 143 140 132 124 110 88 63 54 60 65 79 77 73 80 49 42 61 260 328 360 3 10 40 352 350 350 5 13 4 12 356 341 8 359 14 353 17 67 57 58 118 234 298 303 250 170 245 269 280 292 295 276 281 285 279 270 259 310 319 265 255 280 282 283 282 276 270 243 223 231 234 234 234 232 231 231 234 238 244
19 16 15 33 53 68 96 117 128 145 143 131 117 106 55 0 13 105 84 82 81 75 74 60 40 35 28 5 13 17 29 60 346 356 3 360 352 352 17 14 55 37 356 325 351 32 72 76 82 199 214 255 275 261 283 309 317 321 302 302 302 286 273 275 266 256 3 5 278 279 301 288 282 282 279 268 235 222 227 226 231 233 232 233 233 236 241 247
7 7 11 22 38 60 99 121 134 150 145 134 114 64 0 351 134 132 104 94 90 85 83 74 52 39 33 29 32 25 32 37 7 14 25 29 37 32 30 43 74 53 357 6 47 40 51 87 237 267 299 355 304 282 10 347 317 312 292 305 300 282 287 298 296 290 25 6 289 304 307 287 286 287 283 262 227 234 235 228 233 234 230 232 233 237 241 244
358 2 10 13 23 56 117 133 150 164 162 163 146 31 33 120 134 118 104 105 98 90 85 56 43 36 34 39 40 22 35 35 4 10 21 29 47 45 42 51 60 50 16 28 91 98 66 235 237 273 340 24 346 350 43 24 357 324 292 285 279 298 359 302 302 323 325 270 263 293 297 283 287 292 291 268 234 240 243 236 238 237 235 238 240 243 243 242
354 359 5 5 5 26 156 150 166 183 198 219 249 36 69 122 137 117 92 97 103 93 75 28 26 28 28 29 19 10 35 36 10 8 17 23 35 44 46 49 53 44 18 54 102 110 165 235 240 331 325 52 358 357 41 40 356 316 232 182 247 288 258 244 288 323 319 296 257 293 309 286 290 301 299 300 257 245 245 235 235 236 239 244 247 248 246 245
354 357 0 3 356 246 169 162 174 193 214 229 233 210 116 139 146 133 52 77 46 345 44 7 8 18 17 20 17 6 37 36 25 13 13 25 32 46 42 32 52 36 354 73 93 86 212 237 241 16 345 24 32 343 39 77 355 318 251 195 205 230 261 271 310 339 344 330 318 28 358 294 298 305 283 300 309 263 245 220 227 233 236 240 243 245 246 247
355 358 1 4 359 230 158 147 164 192 216 226 218 206 183 168 158 325 336 79 355 302 5 358 350 2 8 14 4 339 190 13 21 18 19 28 29 45 49 15 46 73 263 91 89 89 213 226 129 82 357 1 12 298 245 110 60 318 259 203 192 207 285 295 325 356 356 291 288 43 41 272 302 303 278 289 289 273 277 248 238 238 235 236 241 246 246 246
358 0 3 7 19 146 154 141 173 194 209 223 205 190 180 176 179 336 8 56 346 282 24 354 345 3 10 12 6 39 176 331 357 23 29 30 19 40 58 4 41 67 238 90 58 295 181 46 10 35 39 11 7 269 234 119 98 279 243 178 187 260 274 279 318 299 239 281 300 293 166 240 298 282 276 297 289 286 288 271 260 249 244 243 246 250 250 249
7 6 7 10 25 188 183 170 201 195 193 207 185 176 170 169 209 357 81 76 330 233 22 346 53 16 15 21 25 62 69 344 5 22 26 35 23 39 63 35 133 197 304 100 128 268 158 140 240 161 73 27 226 230 205 119 112 255 233 193 232 246 244 240 203 247 272 341 319 308 135 189 279 271 293 322 291 292 283 262 260 252 248 249 251 254 255 254
15 13 14 10 7 212 205 206 217 201 197 190 162 166 163 162 244 24 82 116 291 121 28 7 357 352 357 29 36 43 38 20 28 356 17 39 27 34 60 44 114 168 301 110 157 241 214 209 212 150 129 229 231 230 182 136 210 269 291 289 273 254 223 188 166 242 355 24 281 288 87 129 276 273 297 328 269 269 273 264 254 251 253 255 256 257 258 257
15 13 14 10 351 254 214 200 196 191 186 171 157 158 158 157 89 59 58 231 248 39 3 21 321 333 356 25 21 13 32 26 6 3 17 39 30 27 64 79 64 95 354 43 119 236 235 8 261 155 180 208 208 254 214 185 230 314 359 333 314 347 96 116 129 109 44 335 260 266 105 99 300 278 256 248 234 213 237 284 277 262 262 260 260 264 265 262
12 8 7 356 334 219 194 193 185 178 172 164 156 152 152 113 65 88 95 241 113 339 347 5 327 350 14 46 359 347 10 360 358 22 18 20 32 14 35 58 15 48 13 355 356 303 328 4 275 220 212 167 75 325 286 221 213 26 22 356 341 349 34 28 9 57 66 275 261 265 75 113 243 272 254 247 263 231 227 273 276 274 269 256 259 275 279 276
10 4 2 357 354 156 162 169 169 168 166 159 154 155 143 57 27 121 230 321 351 302 357 330 306 1 16 28 2 321 344 338 355 43 27 21 55 6 20 128 140 36 3 328 336 328 307 258 253 234 249 181 102 2 331 360 42 48 25 32 21 347 7 4 328 4 191 245 250 195 89 175 235 259 267 269 277 269 254 254 256 263 261 245 259 288 293 293
7 5 13 29 70 126 140 143 152 159 161 156 153 151 98 76 12 219 256 335 273 267 125 196 301 13 38 25 354 307 332 319 346 37 151 80 67 354 324 252 139 88 315 286 346 348 329 299 290 32 281 193 137 105 313 330 25 29 22 82 85 37 8 317 287 304 277 263 263 174 133 285 280 272 257 251 258 261 260 261 258 254 247 254 280 286 294 301
6 15 27 42 82 108 120 131 148 153 155 154 146 82 65 82 228 204 276 260 228 354 81 160 336 14 50 51 303 317 19 302 313 26 13 32 48 354 313 337 38 85 101 73 13 23 8 308 260 189 230 163 149 173 176 167 223 249 193 128 127 141 156 248 248 251 274 283 287 292 193 221 262 279 243 236 257 271 273 268 258 251 250 263 275 278 294 310
13 27 31 47 91 108 112 129 147 151 154 155 112 65 85 194 233 175 227 244 227 358 329 30 50 40 11 334 292 12 60 276 304 19 20 64 109 185 216 307 339 73 99 82 323 171 156 265 253 185 124 147 167 209 150 117 318 265 139 98 146 185 164 202 227 222 263 311 292 283 244 216 233 281 280 278 283 285 284 270 251 254 256 258 276 291 308 324
23 33 37 55 90 110 120 139 150 152 155 139 70 66 181 218 211 167 187 221 163 157 36 3 58 58 337 317 329 354 56 247 308 9 344 203 179 187 175 223 294 79 116 128 245 350 60 275 265 54 26 163 147 204 161 135 254 321 60 205 229 189 136 120 271 283 19 318 262 208 240 283 306 292 296 330 335 315 309 290 268 267 266 281 298 308 319 324
27 35 44 49 73 121 136 150 152 155 156 101 81 159 216 208 186 179 172 8 187 140 100 57 32 71 302 309 310 310 351 326 318 10 318 284 208 175 158 193 257 137 149 135 174 189 144 282 274 161 235 257 135 145 291 247 156 129 186 244 252 103 82 88 285 331 8 277 264 216 219 266 306 285 309 353 344 322 320 325 320 312 307 302 301 308 320 323
22 37 48 41 58 133 147 153 155 157 137 68 97 215 188 153 194 184 155 47 155 88 91 137 222 158 184 272 283 283 317 321 325 5 286 279 254 160 143 168 258 157 165 103 69 195 118 301 291 258 170 279 28 50 320 320 113 141 197 251 67 110 309 31 160 305 316 287 291 264 235 233 224 245 291 314 315 312 314 335 339 312 305 303 301 317 327 325
11 34 47 32 52 136 149 156 161 159 65 64 164 240 149 165 207 158 152 11 112 90 100 187 205 130 196 188 225 273 285 233 293 359 258 232 260 175 150 170 191 158 172 113 124 218 105 109 283 308 47 315 13 66 239 291 20 66 10 339 24 172 191 194 182 174 202 271 301 287 260 237 226 229 257 284 291 290 301 330 325 288 302 317 322 331 330 327
14 53 41 22 65 138 147 157 163 142 60 95 186 201 159 188 199 161 139 122 118 104 147 209 151 125 237 207 208 265 192 193 208 207 246 235 248 235 171 158 150 148 166 46 82 213 65 134 250 296 338 347 289 215 192 185 168 129 81 271 245 219 154 212 237 163 152 209 275 292 281 254 227 232 277 290 294 285 289 312 302 300 322 329 327 331 332 332
35 71 30 23 114 141 142 147 146 88 94 145 168 148 207 159 158 154 134 115 97 108 139 182 157 168 210 188 201 222 188 231 210 200 250 241 221 264 212 159 157 149 113 39 34 235 148 166 230 287 315 260 244 228 193 179 172 161 172 193 190 166 116 53 281 259 147 190 202 247 286 278 236 217 266 278 278 279 299 317 313 324 334 331 328 331 331 329
56 71 16 63 138 147 141 125 45 68 107 137 127 113 143 143 136 146 150 134 109 123 92 135 173 179 178 179 199 184 164 248 210 196 233 223 201 202 171 167 171 156 127 131 233 220 147 130 251 267 260 254 260 267 163 169 158 157 187 190 157 140 134 148 245 261 265 245 204 156 285 284 271 211 216 238 283 323 350 352 340 334 332 328 325 325 325 326
67 63 25 141 156 156 138 74 6 29 73 135 132 117 131 141 132 136 165 175 145 144 40 55 190 204 203 190 164 157 181 220 200 197 229 249 232 191 145 157 172 156 122 177 242 203 137 114 271 274 280 290 326 17 17 30 87 179 241 182 152 174 167 169 196 189 213 256 245 89 279 281 300 320 109 45 11 2 357 348 337 329 326 324 323 325 331 334
82 62 79 161 171 169 145 149 167 32 257 171 60 52 115 150 152 148 181 211 185 159 156 213 218 218 216 146 119 182 214 226 222 226 228 246 246 188 149 152 171 173 170 199 170 139 192 211 167 316 319 326 348 358 344 349 40 220 253 228 201 203 147 139 196 104 286 252 205 170 262 267 260 22 26 17 5 352 341 336 332 326 324 326 331 337 340 339
103 69 98 169 187 196 196 167 160 153 171 158 103 199 167 145 190 176 178 197 193 181 167 210 201 149 159 69 78 241 241 207 234 293 343 271 263 195 176 175 182 188 193 186 156 136 182 214 160 196 290 290 301 307 302 306 283 240 269 285 245 205 182 212 248 157 237 254 173 179 245 265 275 320 351 352 344 335 330 329 327 326 330 336 340 341 338 335
122 84 102 165 197 204 198 164 151 139 155 161 163 210 164 123 221 203 191 193 199 195 181 178 151 113 88 108 156 265 254 216 228 319 331 246 270 246 197 199 198 195 171 154 152 125 94 257 205 201 217 235 258 262 255 28 309 285 291 289 273 224 199 211 210 200 226 276 269 243 246 269 288 310 328 324 328 329 324 324 326 332 340 342 340 336 332 331
213 220 208 149 195 194 129 181 171 150 161 168 159 181 168 150 338 209 208 221 202 195 205 206 178 169 189 183 187 245 239 208 228 260 246 229 243 315 201 195 201 207 176 149 160 126 64 288 238 216 229 242 259 271 306 351 296 279 284 283 278 255 200 200 228 235 231 342 272 265 272 283 286 304 318 318 327 331 325 329 333 336 339 338 335 333 330 333
281 219 219 185 196 186 122 213 187 153 146 158 151 155 160 162 199 196 202 225 209 197 200 237 223 207 196 181 165 210 226 181 222 234 237 228 229 13 358 203 181 196 173 147 169 140 128 264 241 218 245 254 266 280 291 289 273 269 272 274 278 273 226 209 236 245 236 245 260 273 291 291 291 308 317 320 329 325 322 331 334 335 338 336 333 330 333 341
231 227 211 186 205 192 172 197 180 155 150 141 129 179 169 178 213 222 176 118 312 232 194 213 248 223 207 196 165 174 210 208 259 254 216 196 211 167 282 251 157 172 157 129 185 156 141 259 252 235 270 266 259 269 273 271 274 275 268 263 267 270 252 229 243 251 243 247 259 276 288 285 293 312 314 319 325 323 326 332 333 336 336 332 329 334 344 351
237 262 194 168 173 141 148 170 157 145 158 143 199 224 185 179 206 226 174 158 196 237 180 211 250 221 203 202 184 204 214 190 210 240 184 162 232 202 216 218 149 125 142 139 200 185 160 261 299 14 304 281 246 253 267 269 271 279 280 274 268 273 273 252 249 257 254 257 264 275 279 278 298 324 316 319 326 329 331 330 331 332 330 328 336 349 352 348
240 258 245 169 135 133 153 178 149 130 153 217 215 218 202 203 201 192 201 205 201 188 182 204 225 206 191 197 201 230 238 218 227 246 205 198 233 213 207 193 146 135 166 180 186 162 169 259 346 42 336 291 249 300 314 312 297 287 284 283 277 275 282 264 244 241 236 249 271 283 278 276 312 325 319 321 327 328 325 326 329 328 328 337 352 354 347 342
240 251 244 215 220 184 181 190 143 139 212 217 198 194 212 229 197 166 179 241 216 213 223 214 198 162 177 203 218 240 250 250 263 272 261 254 248 228 223 212 164 154 165 170 171 167 158 175 8 53 315 281 306 351 328 325 321 295 272 270 255 160 8 296 279 263 245 231 269 289 289 302 319 324 322 322 325 324 324 329 329 327 335 351 352 345 341 339
Height
1533 1534 1535 1534 1534 1534 1535 1535 1535 1536 1536 1536 1536 1536 1536 1536 1536 1536 1536 1536 1537 1537 1537 1537 1537 1538 1538 1538 1538 1538 1539 1539 1538 1538 1538 1538 1538 1537 1536 1536 1535 1534 1534 1533 1533 1532 1532 1531 1531 1532 1532 1532 1532 1532 1532 1532 1532 1534 1535 1539 1541 1539 1538 1536 1535 1534 1532 1532 1532 1532 1532 1532 1533 1534 1533 1533 1533 1533 1535 1536 1536 1536 1537 1537 1537 1538 1539 1540
1534 1534 1535 1535 1534 1535 1536 1535 1535 1536 1536 1536 1536 1536 1535 1535 1535 1536 1536 1536 1536 1536 1536 1537 1537 1537 1538 1538 1538 1538 1539 1539 1538 1538 1538 1538 1537 1536 1536 1535 1534 1533 1533 1532 1532 1531 1531 1531 1531 1532 1532 1532 1532 1531 1531 1531 1531 1533 1535 1538 1539 1536 1536 1535 1534 1533 1532 1532 1532 1531 1531 1531 1532 1532 1532 1533 1534 1534 1535 1536 1536 1536 1536 1536 1537 1537 1538 1540
1534 1535 1535 1535 1535 1536 1536 1535 1535 1535 1535 1535 1535 1535 1535 1535 1535 1535 1535 1535 1536 1536 1536 1536 1537 1537 1537 1538 1538 1538 1539 1539 1539 1539 1538 1537 1537 1536 1535 1534 1533 1532 1532 1531 1531 1530 1531 1531 1531 1531 1532 1531 1531 1531 1531 1531 1531 1531 1533 1537 1536 1534 1534 1535 1534 1533 1533 1532 1531 1531 1531 1531 1531 1532 1532 1532 1533 1534 1533 1534 1535 1535 1535 1535 1536 1537 1538 1539
1535 1535 1535 1535 1535 1535 1535 1535 1535 1535 1535 1535 1535 1535 1535 1535 1535 1535 1535 1535 1535 1536 1536 1536 1536 1537 1537 1537 1538 1538 1538 1539 1539 1538 1538 1537 1536 1535 1534 1533 1532 1532 1531 1530 1530 1530 1530 1530 1531 1531 1531 1531 1530 1531 1530 1530 1530 1530 1532 1534 1533 1532 1533 1533 1534 1533 1532 1532 1531 1531 1531 1531 1531 1531 1531 1531 1533 1533 1531 1531 1532 1532 1533 1534 1535 1536 1538 1539
1535 1535 1535 1536 1536 1536 1536 1536 1536 1536 1536 1536 1536 1536 1536 1535 1535 1535 1535 1535 1535 1535 1536 1536 1536 1536 1537 1537 1538 1538 1538 1539 1539 1538 1538 1537 1535 1535 1534 1533 1532 1531 1530 1530 1530 1530 1530 1530 1530 1530 1531 1530 1530 1530 1529 1528 1528 1529 1530 1531 1531 1531 1532 1533 1533 1532 1531 1531 1530 1531 1531 1531 1531 1531 1530 1530 1531 1530 1529 1529 1530 1530 1531 1532 1534 1535 1537 1538
1536 1536 1536 1536 1536 1536 1536 1536 1536 1536 1536 1536 1536 1536 1535 1535 1535 1535 1535 1535 1535 1535 1535 1536 1536 1536 1537 1537 1537 1538 1538 1540 1539 1538 1537 1536 1535 1534 1533 1532 1531 1531 1530 1530 1530 1529 1529 1530 1530 1530 1530 1529 1529 1529 1528 1527 1527 1528 1530 1530 1531 1530 1531 1533 1532 1531 1530 1530 1530 1531 1531 1530 1530 1530 1529 1529 1529 1528 1528 1529 1529 1530 1530 1531 1533 1534 1535 1537
1536 1536 1536 1536 1536 1536 1536 1536 1536 1536 1536 1536 1536 1536 1535 1535 1535 1534 1534 1534 1535 1535 1535 1536 1536 1536 1537 1537 1537 1538 1538 1539 1538 1537 1536 1535 1535 1534 1533 1532 1531 1530 1530 1529 1529 1529 1529 1529 1530 1530 1529 1529 1529 1528 1527 1526 1526 1527 1530 1531 1531 1530 1531 1532 1532 1531 1530 1530 1530 1530 1530 1530 1530 1529 1529 1528 1527 1527 1528 1528 1528 1529 1529 1530 1531 1532 1533 1535
1536 1536 1536 1536 1536 1536 1536 1536 1536 1536 1536 1536 1536 1535 1535 1535 1534 1534 1534 1534 1534 1535 1535 1536 1536 1536 1537 1537 1538 1538 1538 1538 1538 1537 1536 1535 1535 1533 1532 1531 1531 1530 1529 1529 1529 1529 1529 1529 1530 1529 1529 1529 1529 1528 1527 1526 1527 1528 1530 1531 1531 1531 1531 1532 1531 1531 1531 1530 1530 1530 1529 1529 1529 1529 1528 1526 1525 1526 1527 1528 1528 1528 1529 1529 1529 1530 1532 1533
1536 1536 1536 1536 1536 1536 1536 1536 1536 1536 1536 1536 1536 1535 1535 1535 1534 1534 1534 1534 1534 1535 1535 1536 1536 1537 1537 1538 1538 1538 1539 1538 1537 1536 1536 1535 1534 1533 1532 1531 1531 1530 1529 1529 1530 1529 1529 1529 1529 1529 1530 1529 1528 1528 1527 1527 1529 1530 1530 1531 1531 1531 1531 1531 1531 1531 1531 1530 1530 1529 1529 1529 1528 1529 1526 1524 1524 1525 1526 1527 1527 1527 1527 1527 1528 1528 1530 1531
1536 1536 1536 1536 1536 1536 1536 1536 1536 1536 1536 1536 1535 1535 1535 1534 1534 1534 1534 1534 1534 1535 1536 1536 1537 1537 1537 1537 1537 1539 1539 1538 1537 1536 1535 1535 1534 1533 1532 1532 1531 1530 1530 1529 1529 1530 1530 1530 1530 1529 1529 1529 1528 1528 1528 1529 1530 1530 1530 1531 1531 1531 1531 1531 1531 1531 1530 1530 1530 1529 1529 1528 1529 1529 1525 1521 1522 1523 1524 1525 1525 1526 1526 1526 1526 1527 1528 1529
1536 1536 1536 1536 1536 1536 1537 1537 1537 1536 1536 1536 1535 1535 1534 1534 1534 1534 1534 1534 1535 1535 1536 1536 1537 1537 1537 1537 1537 1539 1539 1538 1537 1536 1535 1535 1534 1533 1532 1532 1531 1531 1530 1530 1530 1530 1530 1530 1530 1529 1529 1529 1529 1529 1529 1529 1530 1530 1530 1531 1531 1531 1531 1531 1531 1531 1530 1530 1530 1529 1529 1528 1529 1528 1522 1520 1522 1522 1523 1523 1524 1524 1524 1525 1525 1526 1527 1527
1536 1536 1536 1536 1536 1537 1537 1537 1537 1536 1536 1535 1535 1535 1534 1534 1534 1534 1534 1535 1535 1536 1536 1537 1537 1537 1537 1537 1538 1539 1539 1538 1537 1536 1535 1534 1534 1533 1532 1532 1531 1531 1531 1530 1530 1530 1530 1530 1529 1529 1529 1530 1530 1530 1530 1530 1530 1530 1530 1531 1531 1532 1532 1531 1531 1531 1531 1531 1530 1529 1528 1526 1527 1525 1520 1520 1521 1521 1522 1522 1522 1522 1523 1524 1524 1524 1525 1525
1536 1536 1536 1536 1536 1536 1536 1537 1537 1536 1536 1535 1535 1535 1535 1534 1534 1534 1535 1535 1536 1536 1537 1537 1538 1538 1537 1538 1539 1539 1538 1538 1537 1536 1535 1534 1534 1533 1532 1532 1532 1531 1531 1531 1530 1530 1530 1530 1530 1530 1530 1530 1530 1530 1530 1530 1530 1530 1530 1531 1533 1534 1533 1531 1531 1531 1531 1531 1530 1531 1529 1523 1523 1522 1519 1520 1520 1521 1521 1520 1520 1521 1521 1522 1522 1522 1523 1523
1536 1536 1536 1536 1536 1536 1536 1536 1536 1536 1536 1536 1535 1535 1535 1535 1535 1535 1536 1536 1537 1537 1538 1538 1538 1538 1538 1539 1539 1539 1538 1538 1537 1536 1535 1534 1534 1533 1532 1532 1532 1532 1532 1531 1531 1531 1531 1530 1530 1530 1530 1530 1530 1530 1530 1530 1530 1531 1531 1532 1534 1536 1534 1532 1532 1531 1531 1531 1529 1532 1531 1524 1521 1520 1519 1520 1519 1520 1519 1519 1519 1519 1519 1519 1519 1520 1520 1520
1536 1536 1536 1536 1536 1536 1536 1536 1536 1536 1536 1536 1536 1536 1536 1536 1536 1536 1537 1537 1537 1538 1538 1538 1538 1538 1538 1539 1539 1539 1538 1537 1536 1535 1534 1534 1533 1533 1532 1532 1532 1532 1532 1531 1531 1531 1531 1530 1530 1530 1531 1531 1531 1531 1532 1532 1532 1533 1534 1534 1535 1537 1536 1534 1533 1532 1532 1531 1530 1532 1531 1523 1520 1518 1518 1518 1519 1518 1518 1517 1517 1516 1516 1516 1516 1516 1516 1517
1536 1536 1536 1536 1536 1536 1536 1536 1536 1536 1536 1536 1536 1536 1536 1536 1537 1537 1537 1538 1538 1538 1538 1538 1538 1538 1539 1540 1539 1539 1538 1537 1536 1535 1534 1533 1533 1532 1532 1532 1532 1532 1531 1531 1531 1531 1531 1530 1530 1531 1532 1533 1533 1533 1534 1535 1535 1536 1538 1538 1536 1537 1538 1535 1533 1533 1532 1532 1531 1531 1529 1522 1518 1517 1516 1517 1517 1517 1516 1515 1514 1514 1514 1514 1513 1513 1513 1514
1537 1536 1536 1536 1536 1536 1536 1536 1536 1536 1536 1536 1536 1536 1536 1536 1537 1537 1537 1537 1538 1538 1538 1538 1538 1538 1539 1539 1539 1539 1538 1537 1536 1535 1534 1533 1532 1532 1532 1532 1532 1531 1531 1531 1531 1531 1531 1531 1531 1532 1534 1536 1537 1535 1535 1539 1541 1541 1542 1541 1538 1538 1539 1536 1533 1533 1532 1532 1531 1531 1529 1522 1517 1516 1516 1516 1515 1515 1513 1512 1511 1511 1511 1511 1511 1511 1510 1511
1537 1536 1536 1536 1536 1536 1536 1535 1536 1536 1536 1536 1536 1536 1537 1537 1537 1537 1537 1537 1537 1537 1538 1538 1537 1539 1540 1540 1540 1540 1539 1538 1536 1535 1534 1533 1532 1532 1532 1532 1531 1531 1531 1530 1530 1531 1531 1531 1531 1534 1538 1540 1541 1540 1540 1544 1547 1547 1547 1545 1542 1540 1539 1536 1534 1534 1533 1533 1532 1531 1528 1520 1515 1514 1514 1513 1513 1512 1509 1508 1508 1508 1509 1508 1508 1508 1508 1508
1537 1536 1536 1536 1536 1536 1536 1535 1535 1535 1536 1536 1536 1537 1537 1537 1537 1537 1538 1537 1538 1539 1540 1540 1540 1541 1542 1541 1541 1540 1538 1538 1536 1535 1534 1533 1533 1532 1532 1532 1531 1531 1530 1530 1531 1531 1531 1532 1534 1539 1543 1545 1546 1546 1546 1547 1548 1548 1547 1547 1545 1542 1539 1536 1535 1534 1534 1533 1530 1528 1525 1518 1513 1511 1510 1510 1510 1509 1506 1506 1506 1506 1506 1506 1506 1505 1505 1505
1537 1536 1536 1536 1536 1536 1535 1535 1535 1535 1536 1536 1537 1537 1537 1538 1538 1539 1539 1539 1540 1542 1543 1543 1542 1542 1542 1541 1541 1539 1538 1538 1537 1535 1534 1533 1532 1532 1532 1531 1532 1532 1532 1532 1533 1532 1532 1537 1543 1546 1548 1548 1547 1547 1547 1546 1547 1546 1546 1546 1545 1544 1540 1536 1534 1534 1535 1532 1526 1525 1524 1518 1512 1507 1505 1506 1506 1506 1504 1503 1503 1503 1503 1503 1503 1502 1502 1501
1537 1536 1536 1535 1535 1535 1535 1535 1535 1535 1536 1537 1537 1537 1538 1538 1539 1540 1541 1541 1543 1543 1544 1544 1543 1542 1542 1541 1540 1539 1538 1537 1537 1536 1534 1533 1532 1532 1532 1531 1532 1534 1534 1533 1533 1533 1534 1541 1549 1548 1547 1547 1546 1546 1545 1545 1545 1544 1545 1545 1543 1543 1539 1535 1535 1534 1534 1534 1527 1525 1524 1515 1508 1504 1501 1502 1503 1501 1499 1499 1499 1499 1500 1500 1499 1499 1498 1498
1536 1536 1535 1535 1535 1535 1535 1535 1535 1535 1536 1537 1538 1538 1538 1538 1539 1540 1540 1543 1544 1544 1544 1544 1543 1543 1542 1541 1540 1540 1539 1537 1537 1536 1534 1533 1532 1532 1533 1532 1534 1536 1536 1533 1534 1538 1541 1546 1548 1547 1546 1546 1544 1544 1544 1545 1544 1543 1545 1545 1543 1542 1539 1534 1534 1534 1535 1535 1527 1524 1525 1514 1503 1501 1497 1497 1498 1494 1493 1494 1494 1494 1496 1496 1496 1496 1496 1496
1536 1535 1535 1534 1534 1534 1534 1535 1535 1536 1537 1537 1538 1539 1539 1539 1539 1540 1540 1542 1544 1545 1545 1544 1544 1543 1542 1541 1541 1540 1539 1538 1538 1536 1535 1534 1533 1534 1534 1535 1536 1537 1538 1536 1537 1540 1543 1546 1547 1545 1546 1545 1544 1544 1544 1544 1543 1544 1544 1544 1542 1542 1542 1537 1534 1534 1535 1535 1529 1526 1526 1516 1503 1498 1493 1492 1492 1490 1490 1490 1491 1492 1492 1492 1492 1493 1493 1493
1535 1535 1534 1534 1534 1534 1534 1535 1535 1536 1537 1537 1539 1539 1540 1540 1540 1541 1541 1542 1544 1545 1544 1544 1544 1543 1542 1541 1541 1540 1540 1540 1540 1538 1537 1536 1535 1535 1536 1537 1538 1539 1541 1541 1540 1541 1543 1545 1545 1545 1545 1545 1545 1545 1545 1545 1543 1544 1544 1542 1541 1542 1545 1542 1539 1539 1534 1531 1529 1526 1524 1511 1501 1497 1492 1489 1491 1489 1489 1490 1489 1490 1489 1490 1490 1490 1490 1490
1535 1534 1534 1533 1533 1533 1534 1534 1535 1536 1537 1538 1539 1540 1540 1540 1541 1541 1542 1544 1545 1545 1545 1544 1544 1543 1543 1542 1541 1541 1541 1541 1541 1540 1539 1537 1536 1536 1537 1538 1538 1541 1544 1543 1542 1544 1545 1546 1545 1545 1545 1545 1545 1545 1546 1546 1545 1545 1543 1542 1543 1542 1544 1545 1544 1543 1536 1529 1526 1527 1526 1510 1498 1498 1495 1490 1490 1488 1488 1489 1487 1487 1487 1488 1488 1486 1487 1487
1535 1534 1533 1533 1533 1533 1534 1534 1535 1536 1536 1537 1538 1540 1540 1541 1541 1541 1542 1545 1547 1545 1545 1545 1544 1544 1543 1542 1542 1541 1541 1541 1541 1541 1540 1539 1538 1537 1538 1539 1540 1542 1543 1543 1543 1544 1545 1545 1545 1545 1544 1544 1545 1546 1547 1546 1546 1545 1542 1542 1543 1543 1545 1545 1545 1545 1541 1531 1525 1529 1534 1522 1505 1497 1495 1492 1490 1489 1489 1488 1486 1486 1486 1486 1485 1484 1484 1484
1534 1534 1533 1533 1533 1533 1533 1534 1535 1535 1536 1537 1538 1539 1540 1541 1542 1541 1543 1549 1549 1546 1545 1545 1545 1545 1543 1543 1542 1541 1543 1542 1541 1542 1541 1540 1540 1539 1540 1541 1542 1542 1543 1543 1542 1543 1545 1545 1545 1545 1545 1545 1545 1546 1545 1546 1547 1543 1541 1543 1543 1543 1544 1544 1545 1546 1544 1537 1530 1529 1533 1531 1517 1498 1493 1494 1489 1487 1488 1487 1486 1485 1484 1483 1482 1482 1481 1481
1534 1533 1533 1533 1533 1533 1533 1534 1534 1535 1536 1537 1538 1539 1540 1541 1542 1541 1545 1551 1549 1546 1546 1545 1545 1545 1544 1544 1543 1542 1544 1543 1542 1543 1541 1541 1541 1540 1540 1542 1543 1543 1544 1543 1541 1543 1546 1545 1544 1545 1545 1545 1544 1545 1545 1546 1546 1541 1541 1543 1542 1543 1543 1544 1546 1545 1546 1541 1530 1527 1529 1530 1520 1498 1492 1494 1489 1486 1485 1484 1484 1482 1481 1480 1479 1479 1479 1479
1534 1533 1533 1533 1533 1533 1533 1533 1534 1535 1536 1537 1538 1539 1540 1541 1541 1542 1547 1551 1548 1546 1547 1546 1545 1545 1545 1545 1544 1544 1544 1543 1543 1544 1542 1542 1542 1541 1542 1543 1543 1543 1543 1543 1543 1544 1545 1545 1545 1545 1545 1544 1543 1544 1545 1545 1544 1541 1542 1541 1540 1542 1541 1543 1545 1543 1547 1541 1525 1524 1529 1528 1516 1496 1491 1492 1487 1485 1481 1480 1481 1478 1477 1476 1475 1476 1476 1477
1534 1533 1533 1533 1533 1533 1533 1533 1534 1535 1536 1537 1537 1539 1541 1541 1542 1547 1551 1550 1547 1547 1547 1546 1546 1547 1546 1545 1545 1545 1545 1544 1544 1544 1543 1543 1542 1542 1543 1542 1543 1544 1545 1545 1545 1545 1545 1545 1546 1545 1543 1543 1543 1544 1544 1544 1543 1541 1542 1541 1538 1540 1542 1543 1544 1544 1543 1533 1525 1527 1527 1527 1519 1495 1486 1486 1482 1481 1479 1478 1479 1476 1475 1475 1474 1475 1475 1476
1534 1533 1533 1533 1532 1532 1533 1533 1534 1535 1536 1537 1538 1540 1540 1542 1545 1550 1551 1547 1546 1548 1547 1547 1549 1548 1548 1548 1547 1546 1546 1546 1545 1545 1544 1544 1544 1543 1543 1543 1544 1544 1544 1544 1544 1546 1546 1545 1544 1544 1543 1543 1543 1543 1542 1543 1544 1542 1545 1544 1535 1534 1539 1538 1541 1544 1535 1522 1525 1531 1525 1527 1524 1496 1480 1481 1481 1480 1480 1478 1477 1475 1474 1474 1474 1475 1475 1475
1534 1533 1533 1532 1532 1532 1533 1533 1534 1535 1536 1537 1539 1539 1541 1545 1547 1548 1548 1546 1546 1549 1548 1549 1550 1549 1550 1549 1549 1549 1548 1547 1546 1546 1547 1546 1547 1548 1547 1548 1547 1543 1540 1543 1544 1543 1543 1544 1544 1542 1542 1543 1543 1543 1542 1542 1544 1544 1545 1543 1535 1531 1533 1530 1531 1534 1528 1522 1528 1531 1524 1523 1517 1494 1480 1480 1479 1478 1477 1476 1475 1474 1473 1473 1474 1474 1474 1474
1534 1533 1533 1532 1532 1532 1532 1533 1533 1534 1536 1537 1539 1540 1542 1545 1546 1548 1548 1546 1547 1549 1550 1551 1550 1550 1550 1548 1549 1552 1550 1548 1547 1547 1548 1548 1548 1551 1551 1551 1551 1545 1542 1546 1547 1542 1538 1540 1544 1543 1541 1542 1542 1541 1540 1540 1543 1543 1542 1541 1537 1538 1538 1533 1530 1527 1523 1524 1529 1531 1527 1519 1505 1488 1478 1477 1476 1474 1473 1473 1472 1472 1473 1473 1473 1474 1473 1473
1534 1533 1533 1532 1532 1532 1532 1533 1533 1534 1536 1538 1539 1541 1544 1544 1546 1550 1549 1548 1550 1551 1551 1552 1551 1550 1551 1549 1551 1552 1549 1548 1548 1548 1547 1548 1548 1549 1550 1550 1551 1549 1548 1548 1549 1547 1540 1534 1537 1540 1539 1540 1542 1541 1540 1541 1543 1542 1541 1542 1541 1541 1541 1535 1531 1528 1524 1527 1530 1530 1525 1513 1497 1481 1474 1473 1474 1472 1471 1471 1471 1471 1471 1472 1472 1473 1472 1472
1534 1533 1533 1532 1532 1532 1533 1533 1534 1535 1537 1538 1540 1542 1544 1544 1545 1547 1547 1549 1551 1551 1551 1553 1551 1549 1549 1551 1553 1553 1551 1548 1549 1548 1547 1547 1547 1547 1549 1550 1550 1551 1549 1546 1547 1551 1545 1535 1535 1539 1539 1540 1541 1541 1542 1542 1542 1542 1542 1543 1541 1539 1539 1536 1533 1532 1533 1535 1533 1527 1517 1505 1490 1476 1472 1474 1472 1471 1471 1470 1471 1471 1470 1472 1472 1472 1472 1471
1534 1533 1533 1532 1532 1532 1533 1533 1534 1536 1537 1538 1541 1543 1545 1545 1546 1546 1547 1549 1550 1550 1551 1551 1550 1548 1547 1549 1551 1552 1553 1551 1549 1548 1546 1547 1548 1548 1549 1551 1551 1551 1549 1547 1548 1549 1543 1535 1537 1540 1539 1540 1541 1540 1542 1540 1538 1541 1542 1540 1541 1541 1540 1539 1537 1536 1539 1537 1527 1519 1509 1500 1491 1477 1471 1473 1470 1470 1471 1469 1470 1471 1471 1472 1471 1471 1472 1471
1534 1533 1533 1532 1532 1532 1533 1534 1535 1537 1537 1539 1541 1544 1546 1547 1548 1549 1550 1550 1549 1550 1550 1547 1547 1548 1546 1547 1548 1550 1552 1551 1550 1548 1545 1545 1546 1546 1549 1550 1551 1552 1550 1550 1549 1550 1547 1537 1535 1540 1538 1539 1542 1540 1541 1542 1540 1541 1541 1539 1540 1541 1540 1542 1541 1538 1538 1534 1523 1514 1504 1498 1496 1482 1470 1471 1473 1471 1472 1472 1472 1472 1471 1472 1471 1471 1472 1471
1533 1533 1533 1532 1532 1533 1533 1534 1536 1537 1538 1539 1542 1545 1547 1548 1549 1550 1550 1549 1549 1550 1549 1546 1548 1550 1548 1546 1547 1550 1551 1548 1547 1548 1545 1544 1544 1544 1547 1549 1550 1551 1551 1551 1549 1550 1552 1540 1534 1540 1540 1538 1542 1541 1538 1541 1542 1540 1540 1541 1540 1539 1538 1541 1542 1536 1535 1533 1522 1511 1501 1496 1495 1485 1472 1472 1475 1474 1474 1474 1473 1473 1472 1472 1471 1471 1471 1470
1533 1533 1533 1533 1533 1533 1534 1535 1537 1537 1538 1540 1543 1544 1547 1549 1549 1549 1549 1550 1550 1548 1548 1548 1549 1550 1550 1548 1547 1550 1551 1548 1547 1547 1544 1542 1542 1543 1546 1547 1549 1551 1551 1552 1550 1550 1552 1545 1536 1539 1542 1540 1541 1540 1535 1536 1542 1543 1542 1542 1541 1540 1538 1539 1540 1537 1535 1534 1524 1512 1503 1494 1487 1480 1474 1475 1476 1476 1476 1475 1474 1474 1472 1472 1471 1471 1471 1470
1533 1533 1533 1533 1533 1534 1535 1536 1537 1538 1539 1542 1544 1545 1547 1548 1549 1549 1549 1549 1550 1548 1548 1549 1549 1549 1549 1550 1549 1549 1551 1550 1549 1547 1545 1543 1542 1542 1545 1546 1547 1551 1551 1551 1552 1551 1552 1550 1539 1536 1542 1541 1535 1533 1530 1529 1535 1539 1541 1542 1540 1540 1540 1538 1538 1536 1533 1531 1527 1520 1504 1485 1479 1478 1476 1477 1477 1476 1476 1475 1475 1474 1473 1473 1472 1471 1471 1470
1533 1533 1534 1534 1534 1534 1536 1537 1538 1539 1541 1544 1545 1546 1547 1547 1548 1549 1549 1549 1549 1549 1549 1550 1549 1549 1548 1549 1549 1549 1550 1550 1549 1548 1545 1543 1542 1541 1544 1546 1546 1549 1551 1551 1552 1551 1550 1550 1544 1539 1539 1533 1526 1528 1529 1527 1528 1530 1532 1534 1533 1535 1537 1537 1535 1532 1532 1529 1524 1521 1502 1477 1474 1479 1476 1476 1477 1476 1477 1477 1476 1476 1475 1475 1474 1473 1472 1470
1533 1534 1534 1534 1535 1535 1536 1538 1540 1541 1542 1544 1545 1547 1547 1547 1547 1549 1548 1549 1549 1549 1550 1550 1550 1550 1549 1548 1549 1549 1549 1548 1547 1547 1544 1542 1542 1542 1544 1546 1546 1547 1549 1549 1551 1550 1549 1551 1549 1542 1535 1527 1525 1529 1530 1529 1529 1529 1528 1528 1531 1533 1532 1532 1530 1526 1530 1529 1522 1525 1513 1482 1471 1477 1476 1476 1479 1478 1479 1479 1478 1478 1477 1475 1474 1472 1471 1469
1534 1534 1534 1534 1535 1536 1536 1539 1540 1542 1544 1546 1546 1547 1547 1547 1547 1548 1548 1549 1549 1549 1550 1550 1550 1549 1549 1549 1549 1549 1549 1546 1544 1544 1542 1541 1542 1543 1544 1545 1546 1546 1548 1549 1550 1549 1549 1550 1547 1540 1530 1525 1527 1532 1532 1530 1530 1529 1527 1527 1531 1530 1525 1526 1528 1526 1528 1524 1520 1527 1517 1485 1471 1476 1477 1477 1479 1479 1480 1480 1479 1478 1476 1474 1473 1470 1469 1467
1534 1534 1535 1535 1536 1536 1536 1538 1539 1542 1546 1547 1547 1547 1547 1546 1546 1547 1548 1548 1548 1549 1549 1549 1549 1548 1548 1549 1548 1548 1548 1544 1541 1542 1543 1542 1542 1544 1545 1545 1545 1546 1547 1547 1548 1548 1547 1546 1545 1540 1531 1524 1522 1523 1526 1528 1529 1527 1525 1525 1526 1525 1527 1528 1529 1532 1529 1517 1514 1524 1513 1483 1472 1476 1476 1476 1478 1478 1478 1479 1477 1476 1474 1472 1471 1469 1468 1466
1534 1535 1535 1535 1536 1536 1536 1537 1538 1540 1545 1547 1546 1546 1546 1545 1546 1546 1546 1547 1547 1548 1548 1548 1548 1548 1549 1549 1548 1548 1548 1544 1542 1543 1543 1543 1543 1544 1545 1545 1545 1546 1546 1546 1547 1547 1546 1544 1543 1541 1536 1531 1523 1517 1520 1525 1527 1525 1524 1524 1523 1524 1528 1526 1526 1531 1526 1513 1512 1515 1502 1479 1471 1475 1478 1479 1480 1479 1478 1477 1476 1475 1474 1472 1470 1468 1466 1464
1534 1535 1536 1535 1535 1536 1536 1536 1536 1538 1542 1543 1542 1544 1544 1544 1545 1546 1546 1546 1547 1547 1547 1547 1548 1548 1549 1549 1548 1547 1547 1545 1545 1544 1544 1543 1542 1544 1545 1544 1545 1546 1546 1547 1547 1547 1548 1546 1543 1539 1536 1531 1523 1518 1523 1529 1528 1525 1524 1523 1522 1524 1526 1525 1527 1525 1517 1513 1510 1500 1491 1485 1479 1479 1481 1480 1481 1481 1479 1478 1477 1475 1474 1472 1470 1467 1464 1462
1534 1535 1536 1535 1535 1535 1535 1536 1536 1537 1538 1538 1538 1540 1542 1543 1544 1545 1545 1546 1546 1546 1547 1547 1547 1546 1546 1546 1545 1544 1544 1545 1546 1544 1542 1541 1542 1544 1545 1544 1545 1545 1546 1547 1547 1548 1549 1545 1542 1541 1536 1530 1525 1522 1528 1533 1530 1527 1526 1521 1519 1522 1524 1525 1525 1515 1510 1515 1507 1487 1485 1490 1485 1483 1484 1482 1482 1483 1480 1479 1478 1475 1473 1471 1468 1465 1463 1461
1534 1534 1535 1535 1534 1534 1535 1535 1536 1537 1537 1537 1537 1539 1540 1542 1543 1542 1543 1545 1546 1545 1545 1545 1544 1544 1543 1543 1542 1541 1542 1543 1543 1542 1540 1539 1541 1543 1543 1544 1546 1545 1546 1547 1547 1548 1550 1545 1542 1542 1537 1533 1533 1530 1530 1532 1529 1526 1525 1521 1518 1519 1521 1521 1517 1510 1511 1514 1501 1486 1487 1489 1484 1485 1487 1485 1485 1484 1481 1479 1476 1474 1472 1469 1466 1464 1462 1460
1534 1534 1534 1534 1534 1534 1535 1535 1536 1536 1536 1537 1537 1538 1539 1539 1538 1538 1540 1543 1544 1544 1544 1541 1539 1540 1541 1541 1540 1539 1538 1536 1534 1535 1537 1538 1540 1540 1539 1540 1544 1546 1546 1547 1547 1548 1548 1544 1542 1541 1537 1534 1533 1530 1528 1529 1528 1525 1523 1520 1517 1515 1516 1516 1513 1509 1511 1508 1497 1493 1495 1490 1486 1488 1488 1486 1485 1483 1480 1477 1474 1472 1470 1467 1465 1463 1461 1460
1534 1533 1533 1534 1533 1534 1534 1535 1536 1536 1536 1537 1535 1535 1537 1536 1535 1536 1538 1538 1537 1540 1543 1539 1534 1536 1538 1540 1540 1536 1532 1529 1527 1531 1535 1535 1537 1538 1535 1533 1539 1546 1547 1546 1548 1548 1546 1543 1540 1540 1536 1530 1527 1526 1526 1527 1527 1523 1517 1513 1512 1510 1509 1510 1509 1507 1508 1505 1499 1498 1498 1492 1489 1488 1487 1486 1483 1480 1478 1475 1473 1471 1469 1467 1465 1463 1462 1459
1533 1533 1533 1533 1533 1534 1534 1535 1535 1535 1535 1535 1533 1533 1534 1533 1533 1533 1533 1532 1531 1534 1537 1534 1532 1535 1536 1538 1537 1532 1528 1529 1529 1530 1532 1532 1532 1533 1532 1531 1534 1542 1546 1546 1546 1546 1546 1544 1541 1541 1538 1527 1523 1524 1524 1524 1523 1517 1510 1507 1505 1506 1506 1506 1505 1504 1502 1500 1497 1497 1496 1492 1489 1488 1486 1483 1481 1479 1477 1474 1472 1471 1469 1467 1466 1464 1462 1460
1532 1532 1532 1532 1533 1534 1534 1534 1535 1534 1531 1531 1530 1530 1530 1530 1530 1531 1530 1529 1529 1530 1531 1531 1532 1534 1534 1534 1533 1529 1528 1530 1530 1529 1530 1530 1530 1530 1530 1530 1531 1535 1540 1545 1545 1544 1547 1545 1541 1543 1540 1526 1522 1525 1524 1523 1517 1505 1502 1503 1501 1503 1506 1504 1502 1500 1498 1497 1496 1495 1493 1490 1489 1488 1485 1482 1480 1478 1476 1474 1473 1471 1469 1468 1466 1464 1462 1459